Flag for Algeria Weather past 2 weeks in Oran, Algeria

Now
82 °F

Sunny.


Feels Like: 85 °F
Forecast: 73 / 85 °F
Wind: 17 mph from North

Location: Oran / Es Senia

Current Time: Jul 31, 2014 at 5:15:25 PM

Latest Report: Jul 31, 2014 at 4:30 PM


Visibility: 10 mi

Pressure: 29.95 "Hg

Humidity: 58%

Dew point: 66 °F

Location of OranLocation

Historic Weather in Oran — Graph

°F

Oran temperature yesterday

Maximum temperature yesterday: 84 °F (at 12:00 PM)
Minimum temperature yesterday: 68 °F (at 4:30 AM)
Average temperature yesterday: 77 °F

Past Weeks' High & Low Weather Summary

 TemperatureHumidityPressure
High100 °F (Jul 18, 4:00 PM)100% (Jul 26, 7:00 AM)30.09 "Hg (Jul 26, 7:00 AM)
Low63 °F (Jul 21, 4:00 AM)12% (Jul 19, 4:00 PM)29.80 "Hg (Jul 23, 6:00 PM)
Average79 °F65%29.95 "Hg
* Reported Jul 16 4:00 PM — Jul 31 4:00 PM, Oran, Weather by CustomWeather, © 2014

Note: Actual official high and low records may vary slightly from our data, if they occured in-between our weather recording intervals... More about our weather records

Advertising

Oran weather history for previous 24 hours

 ConditionsComfort  
Time TempWeatherWind HumidityBarometerVisibility
4:00 PM
Jul 31
82 °FSunny.16 mph58%29.95 "Hg10 mi
3:30 PM82 °FSunny.15 mph74%29.95 "Hg10 mi
3:00 PM82 °FSunny.13 mph74%29.95 "Hg10 mi
2:30 PM82 °FSunny.14 mph74%29.98 "Hg10 mi
2:00 PM82 °FSunny.15 mph74%29.98 "Hg10 mi
1:30 PM84 °FSunny.15 mph74%29.98 "Hg10 mi
1:00 PM84 °FSunny.10 mph74%29.98 "Hg10 mi
12:30 PM84 °FPassing clouds.5 mph55%29.98 "HgN/A
12:00 PM84 °FPassing clouds.7 mph55%29.98 "Hg6 mi
11:30 AM84 °FPassing clouds.2 mph51%29.98 "Hg6 mi
11:00 AM84 °FPassing clouds.2 mph51%29.98 "Hg6 mi
10:30 AM81 °FPassing clouds.2 mph66%29.98 "Hg6 mi
10:00 AM79 °FScattered clouds.6 mph74%30.01 "Hg6 mi
9:30 AM77 °FScattered clouds.5 mph79%30.01 "Hg6 mi
9:00 AM75 °FBroken clouds.2 mph83%30.01 "Hg6 mi
8:30 AM75 °FBroken clouds.2 mph83%30.01 "Hg6 mi
8:00 AM73 °FBroken clouds.2 mph89%30.01 "Hg6 mi
7:30 AM72 °FPartly sunny.2 mph94%29.98 "Hg6 mi
7:00 AM72 °FPartly sunny.No wind94%29.98 "Hg6 mi
6:30 AM70 °FPartly sunny.2 mph94%29.98 "Hg6 mi
6:00 AM68 °FPassing clouds.2 mph94%29.98 "Hg6 mi
5:30 AM68 °FPassing clouds.No wind94%29.95 "HgN/A
5:00 AM68 °FPassing clouds.2 mph94%29.95 "HgN/A
4:30 AM68 °FPassing clouds.No wind94%29.95 "HgN/A
4:00 AM68 °FClear.2 mph94%29.95 "Hg10 mi
3:30 AM68 °FClear.2 mph94%29.95 "Hg10 mi
3:00 AM70 °FClear.No wind94%29.95 "Hg10 mi
2:30 AM70 °FClear.2 mph88%29.95 "Hg10 mi
2:00 AM70 °FClear.2 mph88%29.95 "Hg10 mi
1:30 AM68 °FClear.2 mph88%29.95 "Hg10 mi
1:00 AM70 °FClear.2 mph88%29.95 "Hg10 mi
12:30 AM70 °FClear.2 mph94%29.95 "Hg10 mi
12:00 AM70 °FClear.2 mph94%29.95 "Hg10 mi
11:30 PM
Jul 30
73 °FClear.2 mph89%29.95 "Hg10 mi
11:00 PM73 °FClear.No wind89%29.95 "Hg10 mi
10:30 PM75 °FClear.2 mph89%29.95 "Hg10 mi
10:00 PM75 °FClear.2 mph89%29.95 "Hg10 mi
9:30 PM75 °FClear.2 mph89%29.92 "Hg10 mi
9:00 PM75 °FClear.5 mph89%29.92 "Hg10 mi
8:30 PM77 °FClear.7 mph83%29.92 "Hg10 mi
8:00 PM77 °FSunny.7 mph83%29.92 "Hg10 mi
7:30 PM79 °FSunny.12 mph79%29.89 "Hg10 mi
6:30 PM82 °FSunny.14 mph70%29.89 "Hg10 mi
6:00 PM82 °FPassing clouds.16 mph70%29.89 "HgN/A
5:30 PM81 °FPassing clouds.16 mph70%29.89 "HgN/A
5:00 PM82 °FPassing clouds.16 mph66%29.89 "HgN/A
Weather by CustomWeather, © 2014

See weather overviewHow to use our weather pages